Location: Carr Mill
(33.2054°N, 85.9439°W)
Time: 00:00:16
(UTC+00:00)

Cosmos 1400 Rocket - Pass Details

Date: 29 October 2020
Orbit: 521 x 568 km, 81.2° (Epoch: 28 November)

Event Time Altitude Azimuth Distance (km) Brightness Sun altitude
Rises 23:24:59 0° 189° (S) 2,750 6.7 -7.0°
Reaches altitude 10° 23:27:10 10° 191° (S) 1,856 5.8 -7.5°
Maximum altitude 23:31:16 80° 277° (W) 577 3.0 -8.3°
Drops below altitude 10° 23:35:22 10° 5° (N) 1,852 5.3 -9.2°
Sets 23:37:32 0° 7° (N) 2,745 6.2 -9.6°
